N4JAH Weather Reports


time (UTC)temp
C
wind
direction
speed
KPH
gust
KPH
rain 1hr
cm
rain 24hr
cm
rain mn
cm
humidity
%
barometer
mb
20260509054501 13 204 0.0 0.0 0.00 0.00 0.00 91 1013.0
20260509053005 13 204 0.0 0.0 0.00 0.00 0.00 91 1013.3
20260509051507 13 204 0.0 0.0 0.00 0.00 0.00 91 1013.4
20260509050059 13 204 0.0 0.0 0.00 0.00 0.00 90 1013.3
20260509044602 13 204 0.0 0.0 0.00 0.00 0.00 90 1013.3
20260509043002 14 204 0.0 0.0 0.00 0.00 0.00 89 1013.5
20260509041507 14 204 0.0 0.0 0.00 0.00 0.00 89 1013.6
20260509040057 14 204 0.0 0.0 0.00 0.00 0.00 88 1013.6
20260509034601 15 204 0.0 0.0 0.00 0.00 0.00 87 1013.9
20260509033104 15 204 0.0 0.0 0.00 0.00 0.00 87 1014.3
20260509031506 15 204 0.0 0.0 0.00 0.00 0.00 86 1014.2
20260509030053 15 204 0.0 0.0 0.00 0.00 0.00 85 1014.3
20260509024600 15 204 0.0 0.0 0.00 0.00 0.00 84 1014.6
20260509023111 16 204 0.0 0.0 0.00 0.00 0.00 84 1014.3
20260509021502 16 204 0.0 0.0 0.00 0.00 0.00 82 1014.2
20260509020056 16 204 0.0 0.0 0.00 0.00 0.00 81 1013.9
20260509014558 16 204 0.0 0.0 0.00 0.00 0.00 79 1014.0
20260509013109 17 204 0.0 3.2 0.00 0.00 0.00 79 1013.9
20260509011502 17 163 0.0 0.0 0.00 0.00 0.00 79 1014.0
20260509010054 17 163 0.0 0.0 0.00 0.00 0.00 79 1013.8
20260509004559 17 163 0.0 0.0 0.00 0.00 0.00 78 1013.6
20260509003102 17 163 0.0 0.0 0.00 0.00 0.00 77 1013.5
20260509001502 18 163 0.0 0.0 0.00 0.00 0.00 76 1013.7
20260509000054 18 244 0.0 0.0 0.00 0.00 0.00 75 1013.6
20260508234559 18 244 0.0 0.0 0.00 0.00 0.00 72 1013.9
20260508233129 19 244 0.0 0.0 0.00 0.00 0.00 71 1013.6
20260508231504 19 244 0.0 0.0 0.00 0.00 0.00 71 1013.2
20260508230059 20 244 0.0 1.6 0.00 0.00 0.00 69 1013.4
20260508224602 20 244 0.0 0.0 0.00 0.00 0.00 68 1013.4
20260508223002 20 244 0.0 0.0 0.00 0.00 0.00 67 1013.5
20260508221507 21 244 0.0 0.0 0.00 0.00 0.00 65 1013.5
20260508220054 21 244 0.0 0.0 0.00 0.00 0.00 62 1013.3
20260508214559 21 244 0.0 0.0 0.00 0.00 0.00 61 1013.1
20260508213103 21 244 0.0 0.0 0.00 0.00 0.00 60 1013.4
20260508211514 21 244 0.0 0.0 0.00 0.00 0.00 60 1013.2
20260508210057 21 244 0.0 0.0 0.00 0.00 0.00 58 1013.4
20260508204601 22 243 0.0 0.0 0.00 0.00 0.00 56 1013.5
20260508203105 22 243 0.0 3.2 0.00 0.00 0.00 57 1013.4
20260508201506 22 243 0.0 3.2 0.00 0.00 0.00 56 1013.4
20260508200112 22 246 0.0 4.8 0.00 0.00 0.00 54 1013.7
20260508194603 22 267 0.0 3.2 0.00 0.00 0.00 56 1014.0
20260508193003 22 213 0.0 4.8 0.00 0.00 0.00 54 1014.2
20260508191509 22 161 0.0 4.8 0.00 0.00 0.00 55 1014.4
20260508190104 22 322 0.0 3.2 0.00 0.00 0.00 55 1014.7
20260508184501 22 226 0.0 4.8 0.00 0.00 0.00 54 1014.8
20260508183004 22 237 1.6 8.0 0.00 0.00 0.00 58 1015.0
20260508181509 21 342 0.0 6.4 0.00 0.00 0.00 56 1015.4
20260508180059 21 211 1.6 6.4 0.00 0.00 0.00 57 1015.4
20260508174606 21 350 0.0 8.0 0.00 0.00 0.00 59 1015.8
20260508173004 21 232 0.0 4.8 0.00 0.00 0.00 58 1015.8
20260508171509 21 232 0.0 6.4 0.00 0.00 0.00 59 1016.0
20260508164503 20 198 0.0 3.2 0.00 0.00 0.00 62 1016.6
20260508163013 21 251 0.0 3.2 0.00 0.00 0.00 60 1016.8
20260508161512 20 36 0.0 0.0 0.00 0.00 0.00 63 1017.1
20260508160104 19 36 0.0 6.4 0.00 0.00 0.00 62 1017.3
20260508154503 19 225 0.0 4.8 0.00 0.10 0.00 66 1017.4
20260508153006 19 228 0.0 3.2 0.00 0.10 0.00 65 1017.4
20260508151514 18 196 0.0 6.4 0.00 0.10 0.00 69 1017.7
20260508150101 18 146 0.0 3.2 0.00 0.10 0.00 71 1017.6
20260508144505 17 217 0.0 0.0 0.00 0.13 0.00 76 1017.5
20260508143008 17 232 0.0 6.4 0.00 0.13 0.00 78 1017.4
20260508141517 17 248 0.0 0.0 0.00 0.13 0.00 84 1017.4
20260508134504 16 250 0.0 3.2 0.00 0.64 0.00 85 1017.8
20260508133009 16 5 0.0 0.0 0.00 0.64 0.00 86 1017.8
20260508131512 15 5 0.0 0.0 0.00 0.64 0.00 88 1017.6
20260508124501 14 5 0.0 0.0 0.00 1.17 0.00 93 1017.5
20260508123011 12 5 0.0 0.0 0.00 1.17 0.00 96 1017.3
20260508121515 11 5 0.0 0.0 0.00 1.17 0.00 95 1017.0
20260508120101 10 5 0.0 0.0 0.00 1.17 0.00 95 1016.6
20260508114502 10 5 0.0 0.0 0.00 1.19 0.00 95 1016.3
20260508113006 9 5 0.0 0.0 0.00 1.19 0.00 94 1016.2
20260508111510 9 5 0.0 0.0 0.00 1.19 0.00 94 1015.9
20260508110115 9 5 0.0 0.0 0.00 1.19 0.00 94 1015.8
20260508104504 8 5 0.0 0.0 0.00 1.50 0.00 94 1015.6
20260508103008 9 5 0.0 0.0 0.00 1.50 0.00 93 1015.1
20260508101513 9 5 0.0 0.0 0.00 1.50 0.00 93 1015.2
20260508100113 9 5 0.0 0.0 0.00 1.50 0.00 93 1014.9
20260508094502 10 5 0.0 0.0 0.00 1.60 0.00 93 1014.7
20260508093009 10 5 0.0 0.0 0.00 1.60 0.00 93 1014.3
20260508091509 10 5 0.0 0.0 0.00 1.60 0.00 93 1014.2
20260508090115 10 5 0.0 0.0 0.00 1.60 0.00 93 1014.2
20260508084502 11 5 0.0 0.0 0.00 1.65 0.00 93 1013.9
20260508083008 11 5 0.0 0.0 0.00 1.65 0.00 93 1013.9
20260508081507 11 5 0.0 0.0 0.00 1.65 0.00 92 1014.0
20260508080056 11 5 0.0 0.0 0.00 1.65 0.00 92 1013.7
20260508074601 11 5 0.0 0.0 0.00 1.70 0.00 92 1013.7
20260508073112 11 5 0.0 0.0 0.00 1.70 0.00 92 1014.0
20260508071607 11 5 0.0 0.0 0.00 1.70 0.00 92 1013.7
20260508070051 11 5 0.0 0.0 0.00 1.70 0.00 91 1013.8
20260508064604 12 5 0.0 0.0 0.00 2.16 0.00 91 1013.8
20260508063110 12 5 0.0 0.0 0.00 2.16 0.00 91 1013.9
20260508061608 12 5 0.0 0.0 0.00 2.16 0.00 90 1014.0
20260508060059 12 5 0.0 0.0 0.00 2.16 0.00 90 1013.8